GW5309 Weather Reports


Display with metric or nautical units.
time (UTC)temp
F
wind
direction
speed
MPH
gust
MPH
rain 1hr
in
rain 24hr
in
rain mn
in
humidity
%
barometer
mb
20260502130701 54 330 2.0 11.0 0.00 0.00 0.00 93 1029.8
20260502123625 52 328 2.0 11.0 0.00 0.00 0.00 96 1030.1
20260502122608 52 310 2.0 11.0 0.00 0.00 0.00 96 1029.8
20260502121551 51 322 3.0 11.0 0.00 0.00 0.00 96 1029.8
20260502121050 51 317 4.0 11.0 0.00 0.00 0.00 96 1030.0
20260502120549 51 313 4.0 11.0 0.00 0.00 0.00 96 1029.6
20260502115547 51 312 3.0 11.0 0.00 0.00 0.00 96 1029.6
20260502114530 51 315 3.0 11.0 0.00 0.00 0.00 97 1029.2
20260502114029 51 317 3.0 11.0 0.00 0.00 0.00 97 1029.6
20260502113013 51 310 2.0 11.0 0.00 0.00 0.00 97 1029.5
20260502112512 51 313 2.0 11.0 0.00 0.00 0.00 96 1029.3
20260502112010 51 302 2.0 11.0 0.00 0.00 0.00 97 1029.0
20260502111510 51 319 1.0 11.0 0.00 0.00 0.00 96 1029.0
20260502111009 51 315 1.0 11.0 0.00 0.00 0.00 96 1028.9
20260502110507 51 317 3.0 11.0 0.00 0.00 0.00 97 1028.9
20260502110006 51 322 3.0 11.0 0.00 0.00 0.00 97 1028.9
20260502105505 51 312 1.0 11.0 0.00 0.00 0.00 97 1028.8
20260502105004 51 316 1.0 11.0 0.00 0.00 0.00 96 1028.8
20260502104504 51 322 0.0 11.0 0.00 0.00 0.00 96 1028.8
20260502104003 51 341 0.0 11.0 0.00 0.00 0.00 96 1028.4
20260502103502 51 0 0.0 11.0 0.00 0.00 0.00 96 1028.5
20260502103001 51 337 0.0 11.0 0.00 0.00 0.00 96 1028.5
20260502102500 51 312 0.0 11.0 0.00 0.00 0.00 97 1028.4
20260502101959 51 327 0.0 11.0 0.00 0.00 0.00 96 1028.0
20260502100942 51 322 1.0 11.0 0.00 0.00 0.00 96 1028.4
20260502100441 51 343 2.0 11.0 0.00 0.00 0.00 97 1028.0
20260502091401 51 315 5.0 11.0 0.00 0.00 0.00 97 1027.7
20260502090900 51 314 4.0 11.0 0.00 0.00 0.00 97 1028.1
20260502071301 53 350 0.0 11.0 0.00 0.00 0.00 94 1026.9
20260502070800 53 13 0.0 11.0 0.00 0.00 0.00 94 1026.7
20260502070259 53 2 1.0 11.0 0.00 0.00 0.00 94 1026.7
20260502065758 53 33 1.0 11.0 0.00 0.00 0.00 94 1026.5
20260502065257 53 16 2.0 11.0 0.00 0.00 0.00 95 1026.3
20260502064756 53 16 0.0 11.0 0.00 0.00 0.00 95 1026.8
20260502064255 53 8 1.0 11.0 0.00 0.00 0.00 95 1026.6
20260502063754 53 0 1.0 11.0 0.00 0.00 0.00 95 1026.4
20260502062221 53 359 0.0 11.0 0.00 0.00 0.00 96 1027.3
20260502061720 53 352 1.0 11.0 0.00 0.00 0.00 96 1027.2
20260502060147 53 338 2.0 11.0 0.00 0.00 0.00 96 1027.4
20260502055646 53 329 0.0 11.0 0.00 0.00 0.00 96 1027.2
20260502054629 52 331 0.0 11.0 0.00 0.00 0.00 96 1027.3
20260502054129 52 16 0.0 11.0 0.00 0.00 0.00 96 1026.8
20260502053627 52 305 0.0 11.0 0.00 0.00 0.00 95 1027.2
20260502053127 52 27 4.0 11.0 0.00 0.00 0.00 95 1026.8
20260502052626 53 24 2.0 11.0 0.00 0.00 0.00 95 1026.6
20260502051609 53 25 5.0 11.0 0.00 0.00 0.00 95 1026.6
20260502051108 53 22 5.0 11.0 0.00 0.00 0.00 95 1027.0
20260502050607 53 15 3.0 11.0 0.00 0.00 0.00 95 1027.1
20260502050107 53 20 3.0 11.0 0.00 0.00 0.00 95 1027.1
20260502045605 53 11 2.0 12.0 0.00 0.00 2.68 95 1027.2
20260502045105 53 10 3.0 13.0 0.00 0.00 2.68 95 1026.7
20260502044604 53 15 4.0 13.0 0.00 0.00 2.68 95 1026.8
20260502044102 54 14 3.0 11.0 0.00 0.00 2.68 96 1026.6
20260502043601 54 18 5.0 11.0 0.00 0.00 2.68 96 1026.4
20260502042545 54 9 2.0 15.0 0.00 0.00 2.68 96 1026.6
20260502042043 54 349 4.0 15.0 0.00 0.00 2.68 96 1026.8
20260502041027 54 347 4.0 11.0 0.00 0.00 2.68 96 1026.6
20260502040526 55 358 3.0 12.0 0.00 0.00 2.68 96 1026.3
20260502040025 55 348 3.0 12.0 0.00 0.00 2.68 97 1026.7
20260502035008 55 338 5.0 11.0 0.00 0.00 2.68 97 1026.5
20260502034507 55 331 2.0 11.0 0.00 0.00 2.68 97 1026.2
20260502034006 55 330 2.0 11.0 0.00 0.00 2.68 97 1026.7
20260502032949 55 9 2.0 11.0 0.00 0.00 2.68 96 1026.2
20260502031416 55 18 4.0 11.0 0.00 0.00 2.68 96 1026.2
20260502030915 55 13 3.0 11.0 0.00 0.00 2.68 96 1026.2
20260502030414 55 19 4.0 13.0 0.00 0.00 2.68 96 1025.9
20260502025913 55 27 7.0 13.0 0.00 0.00 2.68 97 1026.0
20260502025412 55 22 4.0 12.0 0.00 0.00 2.68 97 1026.1
20260502024911 55 356 2.0 13.0 0.00 0.00 2.68 97 1025.8
20260502023854 55 1 3.0 13.0 0.00 0.00 2.68 97 1025.9
20260502022837 55 331 4.0 15.0 0.00 0.00 2.68 97 1026.1
20260502022336 55 340 5.0 14.0 0.00 0.00 2.68 97 1026.0
20260502021835 55 337 5.0 12.0 0.00 0.00 2.67 98 1026.2
20260502021334 55 12 1.0 11.0 0.00 0.00 2.67 98 1025.6
20260502020833 55 355 3.0 11.0 0.00 0.00 2.67 98 1025.3
20260502015816 55 342 2.0 11.0 0.00 0.00 2.67 98 1025.2
20260502015315 55 328 3.0 11.0 0.00 0.00 2.67 98 1025.0
20260502014814 55 6 3.0 11.0 0.00 0.00 2.67 98 1024.4
20260502014313 55 0 3.0 11.0 0.00 0.00 2.67 98 1024.0
20260502013812 55 357 3.0 11.0 0.00 0.00 2.67 98 1023.8
20260502013311 56 4 3.0 11.0 0.00 0.00 2.67 98 1024.3
20260502012810 56 350 4.0 11.0 0.00 0.00 2.67 98 1023.6
20260502012309 56 7 3.0 11.0 0.00 0.00 2.67 98 1023.7
20260502011808 56 353 2.0 11.0 0.01 0.00 2.67 98 1023.9
20260502011307 56 9 4.0 11.0 0.01 0.00 2.67 98 1023.9
20260502010806 56 3 3.0 11.0 0.01 0.00 2.67 98 1024.0
20260502005749 57 16 2.0 11.0 0.03 0.00 2.67 98 1024.0
20260502004732 57 349 3.0 11.0 0.04 0.00 2.67 98 1024.4
20260502004231 57 16 2.0 11.0 0.05 0.00 2.67 98 1024.2
20260502003214 57 338 2.0 11.0 0.06 0.00 2.67 98 1024.1
20260502002713 57 345 3.0 11.0 0.07 0.00 2.67 98 1024.1
20260502002212 57 30 6.0 11.0 0.07 0.00 2.66 98 1023.7
20260502001711 57 28 4.0 12.0 0.07 0.00 2.66 98 1023.7
20260502001210 58 26 4.0 12.0 0.07 0.00 2.65 98 1023.7
20260502000153 58 3 3.0 12.0 0.10 0.00 2.65 98 1023.9
20260501234620 58 29 3.0 12.0 0.16 0.00 2.63 98 1024.0
20260501234119 58 342 3.0 12.0 0.16 0.00 2.63 98 1023.8
20260501233618 58 342 3.0 12.0 0.14 0.00 2.61 98 1023.7
20260501233118 58 356 3.0 12.0 0.14 0.00 2.61 98 1023.6
20260501232617 58 4 2.0 12.0 0.14 0.00 2.60 98 1023.2
20260501231600 59 335 5.0 12.0 0.13 0.00 2.59 98 1023.5
20260501230542 59 355 2.0 12.0 0.14 0.00 2.57 98 1023.2
20260501230042 59 11 2.0 12.0 0.14 0.00 2.56 98 1023.1
20260501225541 59 332 3.0 12.0 0.16 0.00 2.53 98 1022.8
20260501225040 59 13 3.0 14.0 0.17 0.00 2.51 97 1022.6
20260501224539 59 328 3.0 14.0 0.14 0.00 2.48 98 1022.6
20260501224037 59 321 6.0 14.0 0.12 0.00 2.46 98 1022.5
20260501223537 59 308 8.0 13.0 0.12 0.00 2.46 98 1022.8
20260501223036 59 339 5.0 12.0 0.12 0.00 2.46 98 1022.1
20260501222535 59 336 2.0 12.0 0.11 0.00 2.45 98 1021.3
20260501222034 59 345 3.0 12.0 0.12 0.00 2.45 98 1021.0
20260501221533 59 14 2.0 12.0 0.12 0.00 2.45 98 1020.5
20260501221032 59 5 1.0 14.0 0.12 0.00 2.44 98 1020.9
20260501220531 59 20 6.0 14.0 0.12 0.00 2.42 98 1020.6
20260501220030 59 16 3.0 12.0 0.12 0.00 2.41 98 1020.9
20260501215529 59 12 4.0 12.0 0.10 0.00 2.37 98 1021.3
20260501215028 59 353 2.0 15.0 0.11 0.00 2.33 98 1021.3
20260501214527 59 328 3.0 15.0 0.12 0.00 2.33 98 1020.9
20260501214026 59 27 6.0 15.0 0.12 0.00 2.33 98 1019.8
20260501213525 59 23 6.0 14.0 0.13 0.00 2.33 98 1019.5
20260501213024 59 35 7.0 18.0 0.14 0.00 2.33 98 1019.9
20260501212523 59 20 7.0 19.0 0.14 0.00 2.33 98 1019.7
20260501212022 59 13 4.0 19.0 0.14 0.00 2.33 98 1020.2
20260501211521 59 7 2.0 13.0 0.15 0.00 2.33 98 1020.8
20260501211020 60 13 2.0 13.0 0.16 0.00 2.33 98 1020.8
20260501210519 60 18 3.0 13.0 0.15 0.00 2.31 98 1021.0
20260501210018 60 333 4.0 16.0 0.15 0.00 2.30 98 1020.9
20260501205517 59 30 9.0 16.0 0.14 0.00 2.27 98 1020.5
20260501205016 60 348 5.0 12.0 0.12 0.00 2.23 98 1021.4
20260501203959 60 327 5.0 15.0 0.17 0.00 2.21 98 1022.0
20260501203458 60 359 2.0 15.0 0.18 0.00 2.20 98 1021.6
20260501202957 60 332 8.0 14.0 0.17 0.00 2.19 98 1021.4
20260501201424 60 333 7.0 12.0 0.17 0.00 2.17 98 1021.4
20260501200923 60 325 9.0 12.0 0.17 0.00 2.17 98 1021.8
20260501195906 60 331 6.0 12.0 0.14 0.00 2.14 98 1021.5
20260501195405 60 342 4.0 13.0 0.17 0.00 2.12 98 1021.3
20260501194904 60 345 3.0 13.0 0.24 0.00 2.11 98 1020.8
20260501194403 60 16 3.0 12.0 0.20 0.00 2.08 98 1020.8
20260501193902 60 337 5.0 14.0 0.17 0.00 2.04 97 1021.6
20260501193401 61 327 7.0 14.0 0.15 0.00 2.02 98 1022.1
20260501191828 61 329 7.0 12.0 0.15 0.00 2.02 97 1004.0
20260501191327 62 333 4.0 11.0 0.14 0.00 2.01 97 1003.9
20260501190826 62 351 2.0 11.0 0.13 0.00 2.00 97 1019.6
20260501190325 62 337 4.0 14.0 0.13 0.00 2.00 97 1019.8
20260501185824 62 330 7.0 14.0 0.13 0.00 2.00 97 1003.3
20260501185324 63 331 5.0 18.0 0.12 0.00 1.98 97 1003.1
20260501184822 63 330 10.0 18.0 0.03 0.00 1.90 96 1002.4
20260501184321 64 299 4.0 11.0 0.00 0.00 1.87 97 1004.2
20260501183820 63 326 6.0 11.0 0.00 0.00 1.86 97 1003.0
20260501183319 64 335 4.0 11.0 0.00 0.00 1.86 97 1001.8
20260501182818 64 333 4.0 11.0 0.00 0.00 1.86 97 1001.4
20260501182317 64 330 3.0 11.0 0.00 0.00 1.86 97 1001.3
20260501181816 64 27 4.0 11.0 0.00 0.00 1.86 97 1000.3
20260501180759 64 28 3.0 12.0 0.00 0.00 1.86 98 999.9
20260501175742 63 3 2.0 12.0 0.01 0.00 1.86 99 1000.4
20260501175241 63 25 3.0 12.0 0.02 0.00 1.86 98 1001.7
20260501174740 63 35 4.0 12.0 0.03 0.00 1.86 99 1002.0
20260501174239 62 32 7.0 14.0 0.05 0.00 1.86 99 1001.5
20260501173739 62 30 6.0 15.0 0.05 0.00 1.86 99 1002.2
20260501173238 62 42 8.0 16.0 0.06 0.00 1.86 99 1002.2
20260501171149 60 52 13.0 18.0 0.09 0.00 1.86 99 1018.6
20260501170647 60 59 7.0 14.0 0.09 0.00 1.85 99 1021.1
20260501165630 60 36 5.0 11.0 0.08 0.00 1.84 99 1021.9
20260501165129 61 0 1.0 11.0 0.08 0.00 1.83 99 1022.9
20260501164628 60 344 2.0 11.0 0.07 0.00 1.82 99 1022.8
20260501164127 61 13 2.0 12.0 0.08 0.00 1.82 99 1022.1
20260501163626 61 345 2.0 12.0 0.06 0.00 1.81 99 1022.7
20260501163126 61 22 4.0 12.0 0.05 0.00 1.80 99 1022.3
20260501162108 61 29 6.0 12.0 0.05 0.00 1.78 99 1022.4
20260501161608 61 35 6.0 12.0 0.05 0.00 1.77 99 1022.7
20260501161107 61 38 6.0 14.0 0.06 0.00 1.77 99 1022.8
20260501160050 61 22 3.0 13.0 0.10 0.00 1.76 99 1022.3
20260501155549 61 23 3.0 20.0 0.12 0.00 1.76 99 1022.0
20260501155048 61 20 4.0 20.0 0.14 0.00 1.75 99 1022.4
20260501154547 61 35 11.0 15.0 0.15 0.00 1.75 99 1021.2
20260501154046 61 358 2.0 11.0 0.16 0.00 1.74 99 1022.7
20260501153545 61 3 2.0 11.0 0.18 0.00 1.74 99 1023.2
20260501152528 61 21 3.0 11.0 0.19 0.00 1.74 99 1022.6
20260501152027 61 19 3.0 12.0 0.18 0.00 1.73 99 1022.8
20260501151010 61 329 8.0 14.0 0.15 0.00 1.70 99 1023.6
20260501150509 61 327 6.0 15.0 0.13 0.00 1.68 99 1024.2
20260501150008 61 327 8.0 15.0 0.12 0.00 1.66 99 1024.1
20260501145006 61 326 8.0 15.0 0.08 0.00 1.62 99 1024.2
20260501144505 61 325 10.0 15.0 0.06 0.00 1.59 99 1024.1
20260501144004 61 320 8.0 12.0 0.06 0.00 1.58 99 1023.4
20260501143503 61 326 5.0 11.0 0.04 0.00 1.56 99 1005.9
20260501143002 61 3 1.0 11.0 0.05 0.00 1.55 99 1021.6
20260501142501 61 19 2.0 12.0 0.06 0.00 1.55 99 1021.9